This is the latest recevied weather packets stored in our database for station/object N3SBK. If no packets are shown the sender has not sent any weather packets the latest 10 day(s).
| Time | Temp. | Humidity | Pressure | Rain* | Wind** | Luminosity | Snow |
|---|---|---|---|---|---|---|---|
| 1777308065 | 18.89° C | 37% | 1012.9 hPa | 0 mm | - | 738 W/m² | - |
| 1777307764 | 19.44° C | 35% | 1012.9 hPa | 0 mm | - | 726 W/m² | - |
| 1777307460 | 18.89° C | 37% | 1013 hPa | 0 mm | - | 699 W/m² | - |
| 1777307158 | 18.89° C | 36% | 1013.3 hPa | 0 mm | - | 700 W/m² | - |
| 1777306855 | 18.33° C | 37% | 1013.3 hPa | 0 mm | - | 676 W/m² | - |
| 1777306552 | 18.33° C | 38% | 1013.2 hPa | 0 mm | - | 656 W/m² | - |
| 1777306248 | 18.89° C | 37% | 1013.3 hPa | 0 mm | - | 667 W/m² | - |
| 1777305948 | 18.33° C | 38% | 1013.4 hPa | 0 mm | - | 687 W/m² | - |
| 1777305645 | 17.78° C | 38% | 1013.3 hPa | 0 mm | - | 664 W/m² | - |
| 1777305341 | 17.78° C | 40% | 1013.3 hPa | 0 mm | - | 678 W/m² | - |
| 1777305041 | 17.78° C | 38% | 1013.3 hPa | 0 mm | - | 657 W/m² | - |
| 1777304741 | 17.78° C | 39% | 1013.2 hPa | 0 mm | - | 648 W/m² | - |
| 1777304438 | 17.78° C | 42% | 1013.3 hPa | 0 mm | - | 673 W/m² | - |
| 1777304136 | 17.22° C | 39% | 1013.3 hPa | 0 mm | - | 670 W/m² | - |
| 1777303832 | 17.22° C | 39% | 1013.1 hPa | 0 mm | - | 667 W/m² | - |
| 1777303530 | 17.22° C | 40% | 1013.1 hPa | 0 mm | - | 663 W/m² | - |
| 1777303227 | 16.67° C | 39% | 1013.3 hPa | 0 mm | - | 656 W/m² | - |
| 1777302926 | 16.67° C | 41% | 1013.1 hPa | 0 mm | - | 647 W/m² | - |
| 1777302622 | 16.67° C | 41% | 1013.4 hPa | 0 mm | - | 639 W/m² | - |
| 1777302320 | 16.67° C | 41% | 1013.2 hPa | 0 mm | - | 629 W/m² | - |
| 1777302018 | 16.11° C | 43% | 1013.2 hPa | 0 mm | - | 617 W/m² | - |
| 1777301716 | 16.11° C | 42% | 1013.4 hPa | 0 mm | - | 608 W/m² | - |
| 1777301412 | 15.56° C | 42% | 1013.4 hPa | 0 mm | - | 598 W/m² | - |
| 1777301109 | 15.56° C | 44% | 1013.3 hPa | 0 mm | - | 580 W/m² | - |
| 1777300806 | 15° C | 44% | 1013.5 hPa | 0 mm | - | 411 W/m² | - |
* Rain latest hour (hover to see other rain measurements)
** Current wind speed in m/s (hover to see current wind gust speed)